Nashua, NH

6:58 PM EDT on August 20, 2019 (GMT -0400)
Boire

Weather History for KASH - May, 2019

Change the Weather History Date:

Saturday, May 25, 2019

  Actual Average Record
Temperature  
Mean Temperature 60 °F -  
Max Temperature 75 °F 70 °F 93 °F (2007)
Min Temperature 44 °F 47 °F 24 °F (1956)
Degree Days  
Heating Degree Days 6    
Growing Degree Days 10 (Base 50)    
Moisture  
Dew Point 46 °F    
Average Humidity 61    
Maximum Humidity 100    
Minimum Humidity 31    
Precipitation  
Precipitation 0.00 in - - ()
Sea Level Pressure  
Sea Level Pressure 30.15 in    
Wind  
Wind Speed 3 mph ()    
Max Wind Speed 8 mph    
Max Gust Speed -    
Visibility 10.0 miles    
Events Rain    
Averages and records for this station are not official NWS values.
T = Trace of Precipitation, MM = Missing Value Source: Averaged Metar Reports

Daily Weather History Graph

Daily Weather History Graph

Search for Another Location

Airport or City:

Astronomy

May. 25, 2019 Rise Set
Actual Time 5:14 AM EDT 8:11 PM EDT
Civil Twilight 4:41 AM EDT 8:45 PM EDT
Nautical Twilight 3:58 AM EDT 9:28 PM EDT
Astronomical Twilight 3:08 AM EDT 10:18 PM EDT
Moon 1:09 AM EDT (5/25) 11:12 AM EDT (5/25)
Length of Visible Light 16h 03m
Length of Day
14h 56m
Waning Gibbous, 60% of the Moon is Illuminated
May 25
Waning Gibbous
May 26
Last Quarter
Jun 3
New
Jun 10
First Quarter
Jun 17
Full

Hourly Weather History & Observations

Time (EDT) Temp. Dew Point Humidity Pressure Visibility Wind Dir Wind Speed Gust Speed Precip Events Conditions
12:56 AM 50.0 °F 50.0 °F 100% 30.17 in 10.0 mi Calm Calm - N/A   Clear
1:56 AM 48.0 °F 48.0 °F 100% 30.17 in 10.0 mi NW 3.5 mph - N/A   Clear
2:56 AM 46.9 °F 46.9 °F 100% 30.18 in 10.0 mi NW 5.8 mph - N/A   Clear
3:56 AM 48.0 °F 48.0 °F 100% 30.20 in 10.0 mi WNW 4.6 mph - N/A   Clear
4:56 AM 44.1 °F 44.1 °F 100% 30.20 in 10.0 mi Calm Calm - N/A   Clear
5:56 AM 46.0 °F 46.0 °F 100% 30.22 in 10.0 mi Calm Calm - N/A   Clear
6:56 AM 50.0 °F 48.9 °F 96% 30.24 in 10.0 mi NW 3.5 mph - N/A   Clear
7:56 AM 55.9 °F 50.0 °F 80% 30.24 in 10.0 mi NW 3.5 mph - N/A   Clear
8:56 AM 62.1 °F 48.0 °F 60% 30.24 in 10.0 mi Calm Calm - N/A   Clear
9:56 AM 66.0 °F 46.0 °F 48% 30.23 in 10.0 mi Calm Calm - N/A   Clear
10:56 AM 68.0 °F 44.1 °F 42% 30.23 in 10.0 mi Variable 3.5 mph - N/A   Clear
11:56 AM 70.0 °F 42.1 °F 36% 30.22 in 10.0 mi Variable 4.6 mph - N/A   Clear
12:56 PM 72.0 °F 45.0 °F 38% 30.20 in 10.0 mi SE 8.1 mph - N/A   Clear
1:56 PM 73.0 °F 43.0 °F 34% 30.18 in 10.0 mi SE 8.1 mph - N/A   Partly Cloudy
2:56 PM 75.0 °F 45.0 °F 34% 30.16 in 10.0 mi Variable 6.9 mph - N/A   Scattered Clouds
3:56 PM 75.9 °F 43.0 °F 31% 30.13 in 10.0 mi SSE 5.8 mph - N/A   Clear
4:56 PM 75.0 °F 45.0 °F 34% 30.10 in 10.0 mi Variable 5.8 mph - N/A   Clear
5:56 PM 73.9 °F 45.0 °F 35% 30.09 in 10.0 mi Variable 5.8 mph - N/A   Clear
6:56 PM 69.1 °F 46.0 °F 44% 30.06 in 10.0 mi SE 8.1 mph - N/A   Mostly Cloudy
7:56 PM 68.0 °F 48.0 °F 49% 30.05 in 10.0 mi SSE 3.5 mph - N/A   Mostly Cloudy
8:56 PM 66.9 °F 48.9 °F 52% 30.05 in 10.0 mi Variable 4.6 mph - N/A   Scattered Clouds
9:56 PM 64.9 °F 46.0 °F 50% 30.05 in 10.0 mi Variable 5.8 mph - N/A   Mostly Cloudy
10:56 PM 63.0 °F 44.1 °F 50% 30.05 in 10.0 mi Variable 3.5 mph - N/A   Mostly Cloudy
11:56 PM 61.0 °F 43.0 °F 52% 30.01 in 10.0 mi Variable 4.6 mph - 0.00 in Rain Light Rain